This is the latest recevied weather packets stored in our database for station/object KY0TEQ-13. If no packets are shown the sender has not sent any weather packets the latest 10 day(s).
| Time | Temp. | Humidity | Pressure | Rain* | Wind** | Luminosity | Snow |
|---|---|---|---|---|---|---|---|
| 1788624422 | 21.67° C | 41% | 1310.8 hPa | 0 mm | - | 467 W/m² | - |
| 1788624121 | 22.78° C | 40% | 1310.8 hPa | 0 mm | - | 456 W/m² | - |
| 1788623816 | 21.67° C | 40% | 1311 hPa | 0 mm | - | 441 W/m² | - |
| 1788623515 | 20.56° C | 43% | 1310.8 hPa | 0 mm | - | 433 W/m² | - |
| 1788623209 | 20.56° C | 43% | 1311 hPa | 0 mm | - | 418 W/m² | - |
| 1788622900 | 20° C | 43% | 1311.1 hPa | 0 mm | - | 400 W/m² | - |
| 1788622596 | 20° C | 43% | 1310.8 hPa | 0 mm | - | 375 W/m² | - |
| 1788622291 | 19.44° C | 46% | 1311.1 hPa | 0 mm | - | 369 W/m² | - |
| 1788621985 | 20° C | 45% | 1311 hPa | 0 mm | - | 306 W/m² | - |
| 1788621680 | 18.89° C | 47% | 1310.8 hPa | 0 mm | - | 334 W/m² | - |
| 1788621374 | 18.33° C | 48% | 1310.8 hPa | 0 mm | - | 305 W/m² | - |
| 1788621070 | 18.33° C | 49% | 1311 hPa | 0 mm | - | 300 W/m² | - |
| 1788620760 | 18.33° C | 49% | 1310.8 hPa | 0 mm | - | 282 W/m² | - |
| 1788620458 | 18.33° C | 48% | 1310.8 hPa | 0 mm | - | 265 W/m² | - |
| 1788620157 | 17.78° C | 50% | 1310.8 hPa | 0 mm | - | 37 W/m² | - |
| 1788619856 | 17.78° C | 50% | 1311 hPa | 0 mm | - | 34 W/m² | - |
| 1788619551 | 17.78° C | 49% | 1310.8 hPa | 0 mm | - | 34 W/m² | - |
| 1788619250 | 16.67° C | 51% | 1310.7 hPa | 0 mm | - | 194 W/m² | - |
| 1788618944 | 16.67° C | 51% | 1310.8 hPa | 0 mm | - | 51 W/m² | - |
| 1788618639 | 16.67° C | 50% | 1310.8 hPa | 0 mm | - | 166 W/m² | - |
| 1788618338 | 16.67° C | 51% | 1311.1 hPa | 0 mm | - | 149 W/m² | - |
| 1788618032 | 16.67° C | 51% | 1310.8 hPa | 0 mm | - | 134 W/m² | - |
| 1788617727 | 16.11° C | 52% | 1311 hPa | 0 mm | - | 119 W/m² | - |
| 1788617424 | 16.11° C | 52% | 1311 hPa | 0 mm | - | 103 W/m² | - |
| 1788617118 | 15.56° C | 53% | 1310.7 hPa | 0 mm | - | 89 W/m² | - |
* Rain latest hour (hover to see other rain measurements)
** Current wind speed in m/s (hover to see current wind gust speed)